Location: Hajduki Wielkie
(50.2667°N, 18.9500°E)
Time: 21:39:14
(UTC+00:00)

Daily predictions for brighter satellites

Satellite Brightness Start Highest point End
(mag) Time Altitude Azimuth Time Altitude Azimuth Time Altitude Azimuth
Unknown 3.7 16:11:02 10° WSW 16:15:12 75° NNW 16:19:21 10° ENE
Unknown 3.8 16:14:24 10° WSW 16:18:33 74° NNW 16:22:43 10° ENE
Cosmos 1271 Rocket 3.1 16:15:43 10° NNW 16:19:42 73° W 16:23:41 10° S
Unknown 3.8 16:16:04 10° W 16:20:12 73° NNW 16:24:22 10° ENE
Unknown 3.8 16:17:01 10° W 16:20:47 55° N 16:24:34 10° ENE
Cosmos 1939 Rocket 4.3 16:18:34 10° ESE 16:21:24 19° ENE 16:24:17 10° NNE
YAOGAN 6 3.2 16:18:44 10° SE 16:22:05 35° ENE 16:25:25 10° N
Unknown 3.8 16:17:57 10° W 16:22:06 70° NNW 16:26:15 10° ENE
Unknown 3.8 16:19:23 10° W 16:23:32 71° NNW 16:27:41 10° ENE
Cosmos 2058 Rocket 3.3 16:19:40 10° SSE 16:23:50 46° E 16:28:02 10° NNE
Unknown 3.8 16:21:01 10° W 16:25:10 70° NNW 16:29:20 10° ENE
COBE Rocket 4.2 16:21:59 10° NNE 16:27:03 52° E 16:31:59 10° S
Unknown 3.8 16:24:25 10° W 16:28:34 69° NNW 16:32:36 11° ENE
Unknown 3.8 16:26:03 10° W 16:30:12 68° NNW 16:34:10 11° ENE
Unknown 3.2 16:27:42 10° WNW 16:31:13 73° NNE 16:34:32 11° ESE
SJ 16-02 3.3 16:30:00 10° NNE 16:31:50 12° NE 16:33:33 10° ENE
Unknown 3.8 16:27:45 10° W 16:31:53 68° NNW 16:35:47 11° ENE
Unknown 3.8 16:29:24 10° W 16:33:32 67° NNW 16:37:22 12° ENE
CZ-2D R/B 4.3 16:30:34 10° ESE 16:33:44 25° ENE 16:36:57 10° N
Cosmos 1300 4.4 16:32:52 10° ESE 16:34:48 14° E 16:36:46 10° NE
Cosmos 2082 Rocket 2.6 16:29:57 10° NNW 16:35:26 45° NE 16:40:52 10° SE
Cosmos 1461 2.9 16:31:55 10° NW 16:35:58 63° NE 16:40:07 10° SE
COSMO-SKYMED 1 2.9 16:32:33 10° NNE 16:36:45 45° E 16:40:55 10° S
Unknown 3.8 16:32:48 10° W 16:36:56 66° N 16:40:37 13° ENE
H-2A R/B 3.9 16:33:29 10° S 16:37:17 50° W 16:41:08 10° NNW
Unknown 3.8 16:33:58 10° W 16:38:06 65° N 16:41:43 13° ENE
Unknown 3.8 16:34:31 10° W 16:38:22 55° N 16:41:36 14° ENE
Unknown 3.9 16:34:38 10° W 16:38:46 63° N 16:42:21 13° ENE
CSL-04 Debris 4.3 16:33:44 10° SE 16:39:03 57° ENE 16:44:27 10° N
Unknown 3.9 16:35:21 10° W 16:39:22 59° N 16:42:48 14° ENE
Unknown 3.9 16:36:19 10° W 16:40:27 63° N 16:43:59 14° ENE
Ariane Rocket 3.8 16:36:27 10° ESE 16:40:53 31° ENE 16:45:21 10° N
Okean-O 3.3 16:36:32 10° S 16:40:55 61° WSW 16:45:20 10° NNW
Unknown 3.9 16:38:42 10° W 16:42:46 62° N 16:46:08 15° ENE
Unknown 3.9 16:39:28 10° W 16:43:36 64° N 16:47:00 15° ENE
Cosmos 1605 Rocket 4.0 16:37:43 10° N 16:43:54 64° ENE 16:49:58 10° SSE
Cosmos 1953 Rocket 4.5 16:40:55 10° NNW 16:45:12 53° W 16:49:24 10° S
Unknown 3.9 16:42:46 10° W 16:46:53 63° N 16:50:09 16° ENE
Cosmos 2084 Rocket 3.9 16:43:19 10° NW 16:47:37 46° NE 16:51:03 15° ESE
ATLAS CENTAUR R/B 3.8 16:45:34 10° NNW 16:48:07 14° N 16:50:35 10° NE
Unknown 3.9 16:44:27 10° W 16:48:35 62° N 16:51:46 16° ENE
Cosmos 1934 Rocket 4.2 16:42:30 10° N 16:48:53 84° W 16:55:15 10° S
COSMOS 2406 3.8 16:43:25 10° NW 16:49:08 63° WSW 16:54:47 10° SSE
Cosmos 1844 Rocket 3.4 16:43:39 10° SW 16:49:12 56° NW 16:54:46 10° NNE
CZ-4 R/B 1.4 16:45:45 10° SSE 16:49:57 78° ENE 16:54:12 10° NNW
Unknown 3.9 16:46:06 10° W 16:50:13 62° N 16:53:21 17° ENE
Cosmos 1703 3.3 16:47:23 10° N 16:51:21 85° W 16:55:16 10° S
Unknown 3.9 16:47:46 10° W 16:51:53 62° N 16:54:57 17° ENE
Cosmos 292 Rocket 3.7 16:50:46 10° SSW 16:55:30 83° ESE 17:00:18 10° NNE
BREEZE M DEB (TANK) 3.0 16:55:36 10° W 16:57:46 37° SSW 17:02:09 10° SE
Cosmos 1727 Rocket 4.2 16:52:07 10° SSE 16:57:52 44° E 17:03:40 10° NNE
Unknown 3.9 16:54:26 10° W 16:58:33 60° N 17:01:19 20° ENE
Cosmos 1777 Rocket 4.2 16:54:15 10° NNW 16:59:28 75° WSW 17:04:39 10° SSE
HJ-1C 4.5 16:58:57 22° E 16:59:48 25° ENE 17:02:36 10° N
Unknown 3.9 16:56:08 10° W 17:00:15 60° N 17:02:57 20° ENE
SKYMED 3 4.5 16:56:25 10° NNE 17:00:47 77° ESE 17:05:07 10° S
Unknown 3.9 16:57:45 10° W 17:01:52 60° N 17:04:30 21° ENE
Cosmos 2173 Rocket 4.5 16:56:17 10° N 17:02:04 37° ENE 17:07:44 10° SE
Gbstr 26 Del rocket 4.3 16:56:27 10° WNW 17:02:19 69° SSW 17:08:56 12° SE
NOSS 3-2 (C) 4.5 16:58:08 10° SSE 17:02:27 22° ESE 17:04:26 19° E
Unknown 3.9 16:59:27 10° W 17:03:32 59° N 17:06:06 22° ENE
Cosmos 1242 Rocket 4.1 17:00:20 10° NNW 17:03:50 40° W 17:07:17 10° SSW
Unknown 3.9 17:01:06 10° W 17:05:13 59° N 17:07:42 22° ENE
ADEOS Rocket 4.5 17:00:46 10° NE 17:06:20 21° E 17:11:37 10° SE
EO 1 Delta rocket 3.8 17:03:17 10° SSE 17:07:53 79° ENE 17:13:02 10° N
Unknown 3.9 17:04:27 10° W 17:08:33 59° N 17:10:54 24° ENE
Starlink (trailer) 3.9 17:06:06 10° W 17:10:13 58° N 17:12:29 25° ENE
Cosmos 1076 Rocket 3.7 17:06:34 10° N 17:10:50 48° ENE 17:15:02 10° SSE
ATLAS 5 CENTAUR R/B 3.2 17:06:54 10° W 17:10:58 32° NNW 17:15:33 10° NE
Unknown 3.9 17:07:47 10° W 17:11:53 58° N 17:14:05 25° ENE
Unknown 3.9 17:09:28 10° W 17:13:34 58° N 17:15:42 26° ENE
Cosmos 1908 3.3 17:11:59 10° SSW 17:15:53 79° W 17:19:48 10° N
Cosmos 967 Rocket 4.5 17:09:24 10° NW 17:15:55 86° NE 17:22:21 10° SE
SJ-6B 4.4 17:17:14 18° NE 17:17:14 18° NE 17:18:58 10° NNE
ASTEX 1 3.9 17:11:35 10° N 17:16:30 65° W 17:21:25 10° SSW
SPOT 3 Rocket 4.5 17:16:37 25° E 17:18:02 28° ENE 17:22:25 10° N
Cosmos 2278 Rocket 2.1 17:12:37 10° SSW 17:18:16 75° ESE 17:23:58 10° NNE
Cosmos 1812 Rocket 3.7 17:14:01 10° S 17:18:18 52° E 17:22:39 10° NNE
Unknown 3.9 17:15:29 10° W 17:19:35 58° N 17:21:27 30° ENE
Unknown 3.9 17:16:07 10° W 17:20:13 58° N 17:22:04 30° ENE
Cosmos 2297 4.5 17:16:22 10° SSE 17:21:10 29° ESE 17:22:44 25° ENE
Unknown 3.9 17:17:33 10° W 17:21:40 58° N 17:23:28 31° ENE
Unknown 3.9 17:19:24 10° W 17:23:31 58° N 17:25:15 32° ENE
Cosmos 1726 3.5 17:21:18 10° SW 17:24:45 39° WNW 17:28:14 10° N
SKYMED 2 4.0 17:20:33 10° N 17:24:51 63° WNW 17:29:09 10° SSW
Unknown 3.9 17:21:09 10° W 17:25:16 57° N 17:26:53 33° ENE
Unknown 3.9 17:22:56 10° W 17:27:02 57° N 17:28:35 34° ENE
Unknown 3.8 17:24:29 10° WNW 17:27:48 49° SSW 17:29:00 32° SSE
Cosmos 2100 Rocket 4.0 17:21:52 10° N 17:27:59 58° ENE 17:34:02 10° SSE
Abrixas rocket 2.6 17:25:08 10° WSW 17:28:03 42° SSE 17:28:08 42° SSE
YAOGAN 1 3.2 17:24:12 10° S 17:28:27 56° WSW 17:32:44 10° NNW
Unknown 3.9 17:26:16 10° W 17:30:22 57° N 17:31:46 36° ENE
Unknown 3.9 17:26:25 10° W 17:30:31 57° N 17:31:55 37° ENE
Cosmos 2058 3.0 17:26:35 10° N 17:30:45 55° ENE 17:32:43 28° SE
Unknown 3.3 17:27:33 10° WNW 17:31:18 77° NNE 17:32:10 50° E
Unknown 3.9 17:27:48 10° W 17:31:55 57° N 17:33:16 37° ENE
CSL-04 Rocket 4.3 17:26:56 10° S 17:32:23 59° WSW 17:37:49 10° NNW
ATLAS 3B R/B 3.5 17:27:14 10° SSE 17:32:24 26° ESE 17:32:24 26° ESE
FALCON 9 DEB 3.7 17:29:52 10° WNW 17:33:15 52° SSW 17:34:14 37° SSE
H-2A R/B 2.8 17:33:28 31° E 17:34:20 33° ENE 17:39:09 10° N
Unknown 3.9 17:31:03 10° W 17:35:09 58° N 17:36:21 40° ENE
Cosmos 2151 3.8 17:31:46 10° N 17:35:05 32° NE 17:35:05 32° NE
Lacrosse 5 2.2 17:31:03 10° WNW 17:36:03 61° SW 17:39:02 24° SSE
Unknown 3.9 17:34:28 10° WNW 17:38:33 58° N 17:39:37 43° NE
Unknown 3.9 17:36:10 10° WNW 17:40:16 58° N 17:41:15 44° NE
CENTAUR R/B 3.3 17:36:22 10° S 17:40:48 29° SE 17:40:48 29° SE
Unknown 3.9 17:37:49 10° WNW 17:41:56 58° N 17:42:51 46° NE
ARGOS 3.7 17:42:22 35° ENE 17:42:55 36° ENE 17:47:50 10° N
Cosmos 1898 Rocket 3.5 17:38:04 10° NNW 17:43:19 61° ENE 17:45:15 37° SE
Unknown 3.9 17:39:31 10° WNW 17:43:36 58° N 17:44:27 47° NE
MOS 1 4.2 17:39:46 17° SSE 17:44:07 68° ENE 17:49:45 10° NNW
Unknown 3.7 17:42:57 10° WNW 17:46:22 49° SSW 17:46:48 46° S
Cosmos 2016 Rocket 4.1 17:40:36 10° N 17:46:45 53° ENE 17:49:50 29° SE
Unknown 3.8 17:42:51 10° WNW 17:46:58 58° N 17:47:39 50° NE
NOAA 11 4.4 17:42:00 10° S 17:47:26 72° WSW 17:52:53 10° NNW
Cosmos 1892 4.1 17:44:41 10° N 17:46:40 26° NNE 17:46:40 26° NNE
Unknown 3.8 17:44:34 10° WNW 17:48:41 59° N 17:49:18 52° NE
Falcon 9 debris 4.2 17:45:56 10° WNW 17:49:10 37° SSW 17:49:37 35° SSW
Unknown 3.8 17:46:10 10° WNW 17:50:17 59° N 17:50:50 53° NE
Cosmos 1833 Rocket 3.8 17:45:32 10° NW 17:50:50 43° WSW 17:56:07 10° S
Unknown 3.8 17:47:47 10° WNW 17:51:54 59° N 17:52:23 54° NE
IRS-1A Rocket 4.2 17:47:13 10° SSE 17:52:43 85° WSW 17:58:18 10° NNW
Unknown 3.8 17:49:04 10° WNW 17:53:11 59° N 17:53:38 55° NE
Unknown 3.8 17:50:58 10° WNW 17:55:04 59° N 17:55:26 56° NNE
Cosmos 1939 Rocket 3.6 17:52:04 10° S 17:55:59 52° W 17:59:58 10° NNW
Unknown 3.8 17:54:19 10° WNW 17:58:26 59° N 17:58:39 58° NNE
Unknown 3.4 17:55:34 10° WNW 17:59:13 77° NNW 17:59:13 77° NNW
Unknown 3.8 17:55:59 10° WNW 18:00:05 60° N 18:00:14 59° NNE
Unknown 3.8 17:57:52 10° WNW 18:01:59 61° N 18:02:03 61° NNE
Unknown 3.8 17:59:18 10° WNW 18:03:25 60° N 18:03:25 60° N
USA 238 DEB 3.6 17:56:50 10° SW 18:03:34 84° SE 18:08:11 23° NE
USA 238 3.6 17:56:56 10° SW 18:03:41 83° SE 18:08:15 23° NE
Unknown 3.8 18:00:57 10° WNW 18:05:00 60° N 18:05:00 60° N
SJ-11-01 4.1 18:06:20 56° SSE 18:07:20 87° ENE 18:12:03 10° NNW
Unknown 3.9 18:04:20 10° WNW 18:08:15 60° N 18:08:15 60° N
Cosmos 1300 3.2 18:06:15 10° SSW 18:10:00 57° WNW 18:13:48 10° N
Unknown 3.9 18:05:58 10° WNW 18:09:49 60° NNW 18:09:49 60° NNW
SJ 16-02 1.6 18:06:54 10° NNW 18:10:33 56° N 18:10:33 56° N
Unknown 4.0 18:07:39 10° WNW 18:11:26 59° NNW 18:11:26 59° NNW
Unknown 4.0 18:09:18 10° WNW 18:13:01 58° NNW 18:13:01 58° NNW
Cosmos 2061 Rocket 3.9 18:09:47 10° N 18:16:06 86° E 18:19:06 33° SSE
Unknown 4.1 18:12:42 10° WNW 18:16:16 56° NNW 18:16:16 56° NNW
Unknown 4.1 18:13:18 10° WNW 18:16:22 53° WNW 18:16:22 53° WNW
Unknown 4.1 18:13:51 10° WNW 18:17:22 55° NW 18:17:22 55° NW
Unknown 4.2 18:14:32 10° WNW 18:18:00 55° NW 18:18:00 55° NW
Unknown 4.2 18:14:48 10° WNW 18:18:05 54° NW 18:18:05 54° NW
Cosmos 2082 Rocket 3.5 18:14:13 10° NW 18:19:29 38° WSW 18:24:36 10° S
Ariane Rocket 4.0 18:14:50 10° S 18:19:42 44° W 18:24:37 10° NNW
Unknown 4.2 18:16:12 10° WNW 18:19:37 54° NW 18:19:37 54° NW
Cosmos 1459 Rocket 4.2 18:14:25 10° NNW 18:20:36 69° W 18:26:51 10° S
CZ-2C R/B 3.6 18:22:04 49° NE 18:22:04 49° NE 18:26:59 10° N
Unknown 4.3 18:18:24 10° WNW 18:21:37 50° NW 18:21:37 50° NW
Unknown 4.3 18:19:21 10° WNW 18:22:39 50° NW 18:22:39 50° NW
Unknown 4.5 18:22:38 10° WNW 18:25:48 48° NW 18:25:48 48° NW
NOSS 3-2 (A) 3.4 18:21:25 10° SW 18:27:20 85° NW 18:29:49 41° NE
ATLAS CENTAUR R/B 3.3 18:24:39 10° NNW 18:27:18 23° N 18:27:18 23° N
Meteor 2-1 Rocket 4.3 18:26:33 10° SSW 18:32:02 71° WNW 18:37:39 10° N
Cosmos 1766 Rocket 4.4 18:27:49 10° NNW 18:30:55 45° NNW 18:30:55 45° NNW
Cosmos 1937 Rocket 3.6 18:31:29 10° NNW 18:36:31 72° W 18:36:31 72° W
Cosmos 990 Rocket 4.5 18:33:40 10° NNW 18:38:45 55° WSW 18:39:26 51° SW
Okean 3 Rocket 4.4 18:34:31 10° NNW 18:38:54 49° W 18:38:58 49° W
Resurs 01 Rocket 3.6 18:42:28 20° N 18:42:28 20° N 18:43:57 10° N
NOSS 3-2 (C) 3.4 18:46:30 10° SW 18:51:57 78° WSW 18:51:57 78° WSW
ADEOS Rocket 3.3 18:45:08 10° NNE 18:52:56 86° ESE 19:00:08 10° SSW
SPOT 3 Rocket 4.2 18:57:17 52° W 18:57:17 52° W 19:02:17 10° NNW
ATLAS 5 CENTAUR R/B 4.0 18:53:35 10° NW 18:57:10 20° N 18:57:39 19° N
Cosmos 2123 Rocket 4.0 19:01:06 75° WNW 19:01:06 75° WNW 19:07:21 10° N
Cosmos 2278 Rocket 4.1 18:58:11 10° W 19:02:57 27° NW 19:07:45 10° NNE
Cosmos 2297 4.2 18:59:23 10° SW 19:04:47 57° WNW 19:04:47 57° WNW
Cosmos 2233 Rocket 4.3 19:03:11 10° NNW 19:08:30 64° NNW 19:08:30 64° NNW
H-2A R/B 3.1 19:14:06 44° W 19:14:06 44° W 19:18:49 10° NNW
Lacrosse 5 4.3 19:15:38 10° W 19:18:09 14° WSW 19:18:16 14° WSW
ATLAS 3B R/B 3.6 19:15:55 10° SW 19:19:45 37° SW 19:19:45 37° SW
ARGOS 4.3 19:23:53 39° WNW 19:23:53 39° WNW 19:28:16 10° NNW
CENTAUR R/B 3.9 19:25:19 10° SW 19:28:05 29° WSW 19:28:05 29° WSW
SJ 16-02 4.4 19:46:49 10° WNW 19:47:34 12° WNW 19:47:34 12° WNW
